sat.trackr.live / text

‹ back to catalog

STARLINK-35466

NORAD 66457 · 2025-262B

PAYLOAD ACTIVE UNKNOWN

§ Identity

Operator
Country
US
Launch date
2025-11-15
Launch site
AFETR
Launch vehicle
Mass (kg)
RCS (m²)

Purposes: comms

External: N2YO · Heavens-Above · Gunter

§ Orbital elements

Epoch: 2026-05-24T22:15:27.428256Z

Period
94.27 min
Inclination
43.0000°
Eccentricity
0.0000964
Mean motion
15.27576517 rev/d
Perigee alt
482.4 km
Apogee alt
483.7 km
Semi-major
6,861.2 km
B*
3.5658e-4
RAAN
225.8264°
Arg perigee
287.7533°
Mean anomaly
72.3213°
Rev number
3,056

§ Raw data

STARLINK-354661 66457U 25262B   26144.92740079  .00009562  00000+0  35658-3 0  99912 66457  43.0000 225.8264 0000964 287.7533  72.3213 15.27576517 30568

JSON: /api/v1/satellites/66457 · /tle

For live sub-satellite position, see the globe view (requires WebGL).

§ Visibility from observer

Set your observer location to see the next 7 days of passes ≥ 10°. The values pass through the URL so the page stays shareable.

No JS? Fill the form by hand. The geolocation button needs JavaScript.